Location: Delia
(51.6321°N, 112.3740°W)
Time: 06:32:08
(UTC+00:00)

Envisat - Visible Passes

Search period start: 27 February 2024 00:00
Search period end: 08 March 2024 00:00
Orbit: 762 x 764 km, 98.3° (Epoch: 26 February)

Date Brightness Start Highest point End Pass type
(mag) Time Alt. Az. Time Alt. Az. Time Alt. Az.
27 Feb 4.2 10:36:00 10° NNE 10:39:43 39° ENE 10:39:43 39° ENE visible
27 Feb 3.8 12:15:16 10° N 12:19:43 31° WNW 12:19:54 31° WNW visible
28 Feb 5.1 09:59:13 10° NE 10:02:08 22° ENE 10:02:08 22° ENE visible
28 Feb 3.1 11:37:39 10° N 11:42:18 57° NW 11:42:18 57° NW visible
28 Feb 4.8 13:18:36 10° NNW 13:20:38 12° NW 13:22:29 10° WNW visible
29 Feb 5.8 09:23:40 10° ENE 09:24:32 11° ENE 09:24:32 11° ENE visible
29 Feb 3.3 11:00:17 10° NNE 11:04:43 63° NE 11:04:43 63° NE visible
29 Feb 4.2 12:40:04 10° N 12:43:53 22° WNW 12:44:52 20° WNW visible
01 Mar 4.4 10:23:13 10° NNE 10:27:07 34° ENE 10:27:07 34° ENE visible
01 Mar 3.5 12:02:14 10° N 12:06:55 39° WNW 12:07:17 38° WNW visible
02 Mar 5.3 09:46:40 10° NE 09:49:31 18° ENE 09:49:31 18° ENE visible
02 Mar 2.9 11:24:41 10° NNE 11:29:42 74° WNW 11:29:42 74° WNW visible
02 Mar 4.7 13:05:08 10° NNW 13:07:56 15° NW 13:09:52 12° WNW visible
03 Mar 3.5 10:47:25 10° NNE 10:52:06 56° E 10:52:06 56° E visible
03 Mar 4.0 12:26:56 10° N 12:31:06 26° WNW 12:32:16 24° W visible
04 Mar 4.7 10:10:29 10° NNE 10:14:31 29° E 10:14:31 29° E visible
04 Mar 3.2 11:49:13 10° N 11:54:06 48° WNW 11:54:41 45° W visible
04 Mar 5.0 13:31:14 10° NW 13:31:55 10° NW 13:32:36 10° NW visible
05 Mar 5.5 09:34:17 10° NE 09:36:55 15° E 09:36:55 15° E visible
05 Mar 2.8 11:11:45 10° NNE 11:16:53 89° ESE 11:17:05 83° S visible
05 Mar 4.5 12:51:50 10° NNW 12:55:12 18° NW 12:57:15 15° W visible
06 Mar 3.8 10:34:35 10° NNE 10:39:28 45° E 10:39:29 45° E visible
06 Mar 3.8 12:13:51 10° N 12:18:19 32° WNW 12:19:40 28° W visible
07 Mar 4.9 09:57:49 10° NE 10:01:52 23° E 10:01:54 23° E visible
07 Mar 3.0 11:36:14 10° N 11:41:14 60° WNW 11:42:04 52° WSW visible
07 Mar 4.9 13:17:08 10° NNW 13:19:14 13° NW 13:21:20 10° WNW visible
